Regional Weather Roundup
Issued by NWS Goodland, KS

Home | Current Version | Previous Version | Graphics & Text | Print | Product List | Glossary On
Versions: 1 2 3 4 5 6 7 8 9 10 11 12 13 14 15 16 17 18 19 20 21 22 23 24 25 26 27 28 29 30 31 32 33 34 35 36 37 38 39 40 41 42 43 44 45 46 47 48 49 50
062
ASUS43 KGLD 140608
RWRGLD

GOODLAND FORECAST AREA HOURLY WEATHER ROUNDUP
NATIONAL WEATHER SERVICE GOODLAND KS
1100 PM MST SAT FEB 13 2016

...OFFICIAL OBSERVATIONS...

CITY           SKY/WX    TMP DP  RH WIND       PRES   REMARKS
GOODLAND KS    CLEAR     27  25  92 NW8       30.05R
HILL CITY KS   CLOUDY    28  20  71 NW12      30.07R WCI  18
IMPERIAL NEB   PTCLDY    34  29  82 NW10G20   30.01R
MCCOOK NEB     CLEAR     24  20  84 SW6       30.02F
AKRON CO       CLEAR     32  28  85 N24       30.05R WCI  19
BURLINGTON CO  CLEAR     35  29  78 N14       30.07R
LIMON CO       CLEAR     31  28  89 N20       30.05R WCI  19
$$

...UNOFFICIAL OBSERVATIONS...

CITY           SKY/WX    TMP DP  RH WIND       PRES   REMARKS
COLBY KS       CLEAR     28  28 100 W9        30.05F
GOVE KS          N/A     31  32 100 MISG        N/A
LENORA KS        N/A     25  32 100 MISG        N/A
NORTON KS      CLEAR     23  16  74 S6        30.02F
SHARON SPRINGS   N/A     32  28  85 NW10        N/A
TRIBUNE KS     CLOUDY    30  27  86 NW17      30.04  WCI  18
KIT CARSON CO    N/A     38  33  83 MISG        N/A
YUMA CO          N/A     35  29  79 N16G23      N/A
$$




USA.gov is the U.S. government's official web portal to all federal, state and local government web resources and services.